Simultaneous Nadir Overpasses (SNOs) Predictions

Prediction of SNOs between NOAA-19 and TERRA Satellite Orbit:

Table of predicted SNOs for the next 14.0 days since TLE Epoch: 11/27/2021
Index Date (NOAA-19) Time (NOAA-19) Lat,Lon (NOAA-19) SZA (NOAA-19 ) Date (TERRA) Time (TERRA) Lat,Lon (TERRA) SZA (TERRA ) Distance(km) Time Diff (sec)
1 11/28/2021 16:40:24 80.54, -35.17 103.82 11/28/2021 16:41:20 80.54, -35.25 103.84 1.34 56
2 11/28/2021 17:31:28 -80.54, 132.20 76.17 11/28/2021 17:30:47 -80.54, 132.33 76.17 2.47 41
3 11/30/2021 23:04:28 80.54,-130.95 104.19 11/30/2021 23:04:27 80.55,-130.95 104.20 1.63 1
4 12/03/2021 04:37:38 -80.55, -34.40 75.52 12/03/2021 04:38:08 -80.56, -34.35 75.49 1.21 30
5 12/03/2021 05:28:33 80.55, 132.92 104.50 12/03/2021 05:27:35 80.53, 132.99 104.46 2.49 58
6 12/05/2021 10:10:38 80.56, 62.23 104.76 12/05/2021 10:11:48 80.56, 62.28 104.79 1.10 70
7 12/05/2021 11:01:42 -80.54,-130.11 75.22 12/05/2021 11:01:15 -80.56,-130.09 75.21 2.44 27
8 12/07/2021 16:34:42 80.55, -33.57 105.01 12/07/2021 16:34:55 80.56, -33.51 105.03 1.63 13
9 12/09/2021 22:07:52 -80.56, 63.13 74.80 12/09/2021 22:08:36 -80.56, 63.07 74.78 1.33 44



Historial Predications of SNOs between NOAA-19 and TERRA
